FW3296 Weather Reports


time (UTC)temp
F
wind
direction
speed
knots
gust
knots
rain 1hr
in
rain 24hr
in
rain mn
in
humidity
%
barometer
mb
20260506010516 47 28 3.5 7.0 0.00 0.00 0.00 92 1013.6
20260506005516 47 35 3.5 7.0 0.00 0.00 0.00 92 1013.6
20260506004516 47 45 2.6 6.1 0.00 0.00 0.00 91 1013.6
20260506003517 47 40 3.5 8.7 0.00 0.00 0.00 91 1013.7
20260506002516 47 32 4.3 9.6 0.00 0.00 0.00 91 1013.8
20260506001516 47 32 4.3 8.7 0.00 0.00 0.00 91 1013.8
20260506000536 47 38 4.3 7.8 0.00 0.00 0.00 91 1013.8
20260505235516 47 39 5.2 10.4 0.00 0.00 0.00 91 1013.8
20260505234516 47 38 4.3 7.8 0.00 0.00 0.00 90 1013.8
20260505233516 47 29 5.2 9.6 0.00 0.00 0.00 90 1013.9
20260505232516 47 31 5.2 9.6 0.00 0.00 0.00 90 1014.0
20260505231536 47 37 3.5 8.7 0.00 0.00 0.00 90 1014.0
20260505230517 47 33 4.3 8.7 0.00 0.00 0.00 89 1014.0
20260505225516 47 35 5.2 8.7 0.00 0.00 0.00 89 1014.0
20260505224517 47 29 5.2 8.7 0.00 0.00 0.00 88 1014.1
20260505223517 47 32 4.3 9.6 0.00 0.00 0.00 88 1014.0
20260505222516 47 34 5.2 9.6 0.00 0.00 0.00 88 1014.1
20260505221516 47 32 4.3 9.6 0.00 0.00 0.00 87 1014.2
20260505220517 47 37 4.3 8.7 0.00 0.00 0.00 86 1014.2
20260505215516 47 35 4.3 8.7 0.00 0.00 0.00 86 1014.3
20260505214516 47 28 4.3 9.6 0.00 0.00 0.00 85 1014.4
20260505213516 47 30 4.3 9.6 0.00 0.00 0.00 85 1014.3
20260505212516 48 33 5.2 9.6 0.00 0.00 0.00 84 1014.4
20260505211516 48 31 5.2 11.3 0.00 0.00 0.00 84 1014.4
20260505210516 48 38 4.3 7.8 0.00 0.00 0.00 83 1014.4
20260505205516 48 39 4.3 7.8 0.00 0.00 0.00 83 1014.4
20260505204516 48 32 4.3 8.7 0.00 0.00 0.00 82 1014.3
20260505203516 49 31 4.3 9.6 0.00 0.00 0.00 82 1014.4
20260505202516 49 31 4.3 8.7 0.00 0.00 0.00 82 1014.3
20260505201516 49 30 5.2 8.7 0.00 0.00 0.00 81 1014.3
20260505200516 49 34 4.3 10.4 0.00 0.00 0.00 80 1014.1
20260505195536 50 29 4.3 9.6 0.00 0.00 0.00 79 1014.2
20260505194516 50 34 4.3 9.6 0.00 0.00 0.00 78 1014.0
20260505193516 51 30 4.3 9.6 0.00 0.00 0.00 78 1014.0
20260505192516 51 33 4.3 8.7 0.00 0.00 0.00 77 1013.9
20260505191516 52 31 5.2 9.6 0.00 0.00 0.00 74 1013.9
20260505190516 53 30 4.3 9.6 0.00 0.00 0.00 72 1013.8
20260505185516 54 31 6.1 14.8 0.00 0.00 0.00 69 1013.8
20260505184516 55 30 6.1 12.2 0.00 0.00 0.00 67 1013.8
20260505183517 55 30 6.1 10.4 0.00 0.00 0.00 65 1013.9
20260505182516 56 30 7.0 12.2 0.00 0.00 0.00 65 1013.9
20260505181516 57 24 4.3 11.3 0.00 0.00 0.00 65 1013.8
20260505180536 57 32 6.1 12.2 0.00 0.00 0.00 65 1013.9
20260505175516 57 34 5.2 11.3 0.00 0.00 0.00 68 1013.7
20260505174516 57 5 4.3 10.4 0.00 0.00 0.00 69 1013.8
20260505173536 57 17 5.2 13.0 0.00 0.00 0.00 69 1013.8
20260505172516 58 22 4.3 8.7 0.00 0.00 0.00 67 1013.9
20260505171516 59 32 4.3 10.4 0.00 0.00 0.00 67 1013.8
20260505170516 58 28 5.2 12.2 0.00 0.00 0.00 68 1013.8
20260505165516 59 4 4.3 11.3 0.00 0.00 0.00 67 1013.9
20260505164515 59 24 5.2 11.3 0.00 0.00 0.00 68 1013.9
20260505163516 60 6 4.3 9.6 0.00 0.00 0.00 67 1014.0
20260505162516 60 7 5.2 11.3 0.00 0.00 0.00 66 1013.9
20260505161516 61 27 4.3 9.6 0.00 0.00 0.00 66 1014.0
20260505160516 60 25 4.3 10.4 0.00 0.00 0.00 66 1014.0
20260505152516 61 36 6.1 12.2 0.00 0.00 0.00 59 1014.0
20260505151516 62 25 4.3 9.6 0.00 0.00 0.00 58 1014.0
20260505150516 62 31 6.1 12.2 0.00 0.00 0.00 58 1014.1
20260505140515 61 38 6.1 11.3 0.00 0.00 0.00 60 1014.3
20260505124516 57 10 3.5 10.4 0.00 0.00 0.00 80 1014.5
20260505123515 58 22 3.5 9.6 0.00 0.00 0.00 80 1014.4
20260505122515 58 32 6.1 13.0 0.00 0.00 0.00 78 1014.5
20260505121515 58 33 6.1 11.3 0.00 0.00 0.00 78 1014.5
20260505120515 58 26 6.1 10.4 0.00 0.00 0.00 78 1014.6
20260505115515 57 27 5.2 12.2 0.00 0.00 0.00 82 1014.5
20260505114515 56 31 4.3 10.4 0.00 0.00 0.00 84 1014.5
20260505113515 55 33 5.2 9.6 0.00 0.00 0.00 86 1014.5
20260505112515 54 38 3.5 7.8 0.00 0.00 0.00 86 1014.5
20260505111515 54 40 3.5 9.6 0.00 0.00 0.00 87 1014.6
20260505110515 53 35 5.2 12.2 0.00 0.00 0.00 87 1014.7
20260505101515 53 38 6.1 10.4 0.00 0.00 0.00 91 1014.8
20260505100515 53 44 5.2 9.6 0.00 0.00 0.00 93 1014.7
20260505095515 52 34 6.1 9.6 0.00 0.00 0.00 94 1014.6
20260505094515 52 40 2.6 7.8 0.00 0.00 0.00 96 1014.6
20260505093515 51 46 4.3 7.8 0.00 0.00 0.00 96 1014.5
20260505092515 51 35 3.5 7.8 0.00 0.00 0.00 96 1014.5
20260505091515 50 38 4.3 11.3 0.00 0.00 0.00 97 1014.5
20260505090515 50 37 3.5 9.6 0.00 0.00 0.00 98 1014.5
20260505085515 50 35 5.2 11.3 0.00 0.00 0.00 99 1014.5
20260505084515 51 21 3.5 8.7 0.00 0.00 0.00 99 1014.5
20260505083515 51 39 3.5 7.0 0.00 0.00 0.00 99 1014.4
20260505082514 51 41 2.6 5.2 0.00 0.00 0.00 99 1014.5
20260505081555 50 35 3.5 6.1 0.00 0.00 0.00 99 1014.5
20260505080517 50 48 3.5 5.2 0.00 0.00 0.00 99 1014.4
20260505075517 50 47 3.5 6.1 0.00 0.00 0.00 99 1014.4
20260505074516 50 43 2.6 6.1 0.00 0.00 0.00 99 1014.4
20260505073517 50 39 3.5 7.8 0.00 0.00 0.00 99 1014.4
20260505072537 49 50 3.5 6.1 0.00 0.00 0.00 99 1014.4
20260505071517 48 42 2.6 6.1 0.00 0.00 0.00 99 1014.4
20260505070516 48 38 3.5 5.2 0.00 0.00 0.00 99 1014.4
20260505065516 48 55 3.5 6.1 0.00 0.00 0.00 99 1014.3
20260505064516 48 52 2.6 5.2 0.00 0.00 0.00 99 1014.4
20260505063517 48 51 1.7 4.3 0.00 0.00 0.00 99 1014.4
20260505062516 48 52 1.7 3.5 0.00 0.00 0.00 99 1014.3
20260505061516 48 52 1.7 3.5 0.00 0.00 0.00 99 1014.3
20260505060517 47 52 2.6 4.3 0.00 0.00 0.00 99 1014.3
20260505055537 47 49 2.6 5.2 0.00 0.00 0.00 99 1014.3
20260505054516 47 55 2.6 3.5 0.00 0.00 0.00 98 1014.3
20260505053517 47 57 1.7 3.5 0.00 0.00 0.00 98 1014.2
20260505052516 47 56 2.6 3.5 0.00 0.00 0.00 98 1014.3
20260505051516 47 56 2.6 5.2 0.00 0.00 0.00 98 1014.3
20260505050516 48 59 2.6 4.3 0.00 0.00 0.00 98 1014.3
20260505041516 49 51 3.5 6.1 0.00 0.00 0.00 98 1014.2
20260505040516 49 43 2.6 7.0 0.00 0.00 0.00 98 1014.2
20260505035516 49 44 3.5 6.1 0.00 0.00 0.00 98 1014.1
20260505034516 49 51 2.6 5.2 0.00 0.00 0.00 98 1014.1
20260505033536 49 56 2.6 4.3 0.00 0.00 0.00 98 1014.0
20260505032536 49 57 2.6 5.2 0.00 0.00 0.00 98 1014.0
20260505031516 50 57 2.6 5.2 0.00 0.00 0.00 98 1014.1
20260505030516 50 58 2.6 6.1 0.00 0.00 0.00 98 1014.1
20260505025516 50 57 2.6 5.2 0.00 0.00 0.00 98 1014.2
20260505024537 50 61 2.6 4.3 0.00 0.00 0.00 98 1014.2
20260505023516 50 60 2.6 5.2 0.00 0.00 0.00 98 1014.2
20260505022516 50 59 2.6 5.2 0.00 0.00 0.00 98 1014.2
20260505021536 50 58 2.6 4.3 0.00 0.00 0.00 98 1014.3
20260505020516 50 57 2.6 5.2 0.00 0.00 0.00 98 1014.3
20260505015516 50 58 2.6 4.3 0.00 0.00 0.00 98 1014.3
20260505014516 50 57 2.6 5.2 0.00 0.00 0.00 98 1014.5
20260505013516 51 55 2.6 4.3 0.00 0.00 0.00 98 1014.6
20260505012516 51 55 1.7 5.2 0.00 0.00 0.00 98 1014.7